AALTO-2

Last updated on April 5, 2018, 12:15 a.m. UTC

1 42729U 98067MJ  18094.36444783  .00020015  00000-0  18754-3 0  9991
2 42729  51.6377  12.2538 0001025 342.7846  17.3115 15.67208314 48779

Satellite is not in orbit.